weather.gov     
National Weather Service

Terminal Aerodrome Forecast
NWS Homepage
This page is being discontinued on March 12, 2014.
The same data is available at this site. Please update your bookmarks.
Thank you, and we apologize for the inconvenience.
Please send an email to SR-SRH.Webmaster@noaa.gov with any concerns.


Current Version
Previous Version:    01  02  03  04  05  06  07  08  09  10  11  12  13  14  15  16  17  18  19  20  21  22  23  24  25  
[Printable]
537
FTUS45 KPIH 282300
TAFPIH
TAF
KPIH 282320Z 2900/2924 24008KT P6SM VCSH SCT120 OVC140
     FM290300 18010KT P6SM VCSH BKN120 OVC140
     FM290600 VRB04KT P6SM BKN110 OVC140
     FM291200 21015KT P6SM VCSH SCT060 BKN100 OVC140
     FM291800 27008KT P6SM VCTS FEW090CB BKN140=


U.S. Dept. of Commerce
NOAA National Weather Service
1325 East West Highway
Silver Spring, MD 20910
E-mail: w-nws.webmaster@noaa.gov
Page last modified: May 16, 2007
NATIONAL WEATHER SERVICE: for Safety, for Work, for Fun - FOR LIFE